Voltar ao catálogo

CZ-6A DEB

AtivoPO
NORAD 61812·DEBRIS·🇨🇳 China

Lançado Aug 6, 2024 de Taiyuan Satellite Launch Center

Loading…

Próximas Passagens (próximas 24 horas)

TLE

AtualizadoSource: Space-Track

Época: Sep 14, 2026, 01:46 UTC

1 61812U 24140ACC 26257.07366303  .00001766  00000-0  65014-3 0  9998
2 61812  89.3799 298.2637 0084198 295.7334  63.5188 14.30333415105661

Acompanhe CZ-6A DEB em tempo real com AllMySat

Download on the App Store